Regional Weather Roundup
Issued by NWS

Home | Current Version | Previous Version | Text Only | Print | Product List | Glossary Off
Versions: 1 2 3 4 5 6 7 8 9 10 11 12 13 14 15 16 17 18 19 20 21 22 23 24 25 26 27 28 29 30 31 32 33 34 35 36 37 38 39 40 41 42 43 44 45 46 47 48 49 50

843
ASUS43 KMPX 081701
RWRMN
WEATHER ROUNDUP FOR MINNESOTA
NATIONAL WEATHER SERVICE TWIN CITIES/CHANHASSEN MN
1100 AM CST MON FEB 08 2016


NOTE: "FAIR" INDICATES FEW OR NO CLOUDS BELOW 12,000 FEET WITH NO
SIGNIFICANT WEATHER AND/OR OBSTRUCTIONS TO VISIBILITY. N/A MEANS
CURRENT SKY AND/OR WEATHER CONDITIONS ARE NOT AVAILABLE.

MNZ060>063-068>070-081800-
   Twin Cities Metro

CITY           SKY/WX    TMP DP  RH WIND       PRES   REMARKS
TWIN CITIES    CLOUDY    13   3  64 NW22G28   29.95R WCI  -6
ST PAUL        CLOUDY    13   3  64 NW21      29.97R WCI  -5
CRYSTAL        CLOUDY    14   3  61 NW18G28   29.95R WCI  -3
BLAINE         CLOUDY    16   5  62 NW17G29   29.95R WCI   0
LAKEVILLE      CLOUDY    10   3  72 NW18G28   29.94R WCI  -8
EDEN PRAIRIE   CLOUDY    14   3  61 NW21G31   29.95R WCI  -4
SOUTH ST PAUL  CLOUDY    14   4  64 NW18G24   29.95R WCI  -3
LAKE ELMO      CLOUDY    14   5  67 NW17G23   29.94R WCI  -3
$$
MNZ001>005-007-008-013>017-022>024-027-028-081800-
   Northwest Minnesota

CITY           SKY/WX    TMP DP  RH WIND       PRES   REMARKS
BEMIDJI        LGT SNOW   7   1  76 NW17G23   30.02R WCI -11
HALLOCK        CLOUDY    12   7  79 N29G38    30.19R HAZE    WCI  -9
ROSEAU         LGT SNOW   9   1  72 NW18      30.10F WCI -10
WARROAD        LGT SNOW   5  -2  72 NW17G26   30.09S WCI -14
CROOKSTON      FOG       10   9  92 N24G32    30.18F VSB 1   WCI -10
FOSSTON        LGT SNOW   9   3  78 NW23G30   30.09S VSB 3/4 WCI -12
DETROIT LAKES  LGT SNOW  12   9  85 N22G35    30.08R VSB 1   WCI  -7
MOORHEAD       MIX PCPN  12   9  85 N30       30.16F WCI  -9
PARK RAPIDS    LGT SNOW  10   1  67 NW28G35   29.99F WCI -12
MAHNOMEN         N/A     10   5  83 N24       30.10R WCI -11
$$
MNZ006-009>011-018-025>026-081800-
   North Central Minnesota

CITY           SKY/WX    TMP DP  RH WIND       PRES   REMARKS
BAUDETTE       LGT SNOW   4  -3  73 NW17      30.03S WCI -16
FLAG ISLAND    CLOUDY     3  -2  78 NW20G25   30.06S WCI -18
INTL FALLS     LGT SNOW   5  -2  72 NW16      29.98R WCI -14
WASKISH        FLURRIES   7   0  72 NW12G18   30.03R WCI  -9
LONGVILLE      CLOUDY     9   0  66 NW13G24   29.98S WCI  -7
GRAND RAPIDS   CLOUDY     7  -2  66 NW25G31   29.94R WCI -15
CRANE LAKE     CLOUDY     7   0  72 NW12G21   29.95R WCI  -9
ORR            CLOUDY     7  -2  66 NW14      29.90S WCI -10
COOK           CLOUDY     7   0  72 NW9       29.91S WCI  -7
WALKER         CLOUDY     7   0  73 NW14G22   29.99F WCI -10
$$
MNZ012-019>021-037-081800-
   Northeast Minnesota

CITY           SKY/WX    TMP DP  RH WIND       PRES   REMARKS
DULUTH         LGT SNOW   8   1  73 N20G28    29.83R BLWGSNOWWCI -11
ELY            CLOUDY     9   1  72 NW8G22    29.85S WCI  -4
HIBBING        CLOUDY     5  -1  76 NW22      29.90R BLWGSNOWWCI -16
EVELETH        MOSUNNY    9   1  72 NW15G22   29.89R WCI  -8
DULUTH HARBOR  CLOUDY    14   7  73 NW20G25   29.91R WCI  -3
TWO HARBORS    CLOUDY    14   5  67 NW7G17    29.82R WCI   4
SILVER BAY     FLURRIES  14   5  67 NW8       29.80R WCI   3
GRAND MARAIS     N/A     13   2  61 VRB3      29.83R
G MARAIS ARPRT LGT SNOW   7  -2  66 NW25G32   29.70R WCI -15
$$
MNZ029>031-032-039>041-046>048-054>057-064-081800-
   West Central Minnesota

CITY           SKY/WX    TMP DP  RH WIND       PRES   REMARKS
FERGUS FALLS   CLOUDY    12   7  79 N30G43    30.13S HAZE    WCI  -9
WHEATON        CLOUDY    18  10  73 NW25G43   30.17R WCI  -1
MORRIS         LGT SNOW  14   9  79 N32G41    30.08R VSB 3/4 WCI  -7
ALEXANDRIA     LGT SNOW  11   2  67 N28G38    30.02S WCI -10
ELBOW LAKE     CLOUDY    12   5  74 NW30G41   30.09R HAZE    WCI -10
WADENA         LGT SNOW   9   1  72 NW23G32   30.01S WCI -12
GLENWOOD       LGT SNOW  10   5  79 NW26G33   30.02S WCI -11
APPLETON       HVY SNOW  16  10  79 N33G39    30.12R VSB<1/4 WCI  -5
BENSON         FLURRIES  12   7  79 N29G40    30.07R WCI  -9
ORTONVILLE     LGT SNOW  14   9  79 N26G36    30.13R WCI  -6
MADISON        SNOW      16  10  79 N29G36    30.13R VSB 1/2 WCI  -4
WILLMAR        CLOUDY    14   7  73 N28G37    30.04R WCI  -6
$$
MNZ033>034-036-042>043-049>051-058-059-081800-
   Central Minnesota

CITY           SKY/WX    TMP DP  RH WIND       PRES   REMARKS
ST CLOUD       CLOUDY    12   2  64 NW22G30   29.98S WCI  -7
SAUK CENTRE    CLOUDY    10   3  72 NW22G29   30.01S HAZE    WCI  -9
PAYNESVILLE    FLURRIES  11   4  73 NW17G26   30.02R WCI  -6
AITKIN         SUNNY     10  -2  56 NW9G17    29.95R WCI  -2
PINE RIVER     CLOUDY     9   1  72 NW15G22   30.02S WCI  -8
BRAINERD       CLOUDY     9   1  70 NW17G30   29.98R BLWGSNOWWCI  -9
STAPLES        FLURRIES   9   1  72 NW20      30.00F WCI -11
LONG PRAIRIE   CLOUDY    10   3  72 NW17G30   30.00S HAZE    WCI  -7
LITTLE FALLS   CLOUDY    12   1  62 NW10G18   30.00S WCI  -1
LITCHFIELD     PTSUNNY   12   7  79 NW16G28   30.01R WCI  -4
BUFFALO        CLOUDY    13   5  70 NW21G26   29.99R HAZE    WCI  -5
MAPLE LAKE     CLOUDY    13   7  74 NW18G26   29.99S HAZE    WCI  -4
$$
MNZ037-044-045-052-053-081800-
   East Central Minnesota

CITY           SKY/WX    TMP DP  RH WIND       PRES   REMARKS
PRINCETON      PTSUNNY   12   3  67 NW15      29.96R WCI  -4
MORA           CLOUDY    12   3  67 NW18G26   29.96R WCI  -5
CAMBRIDGE      CLOUDY    14   3  62 NW14G21   29.94R WCI  -1
RUSH CITY      CLOUDY    12   2  64 NW9G20    29.95R WCI  -1
MOOSE LAKE     CLOUDY    10   1  67 NW13G22   29.90R WCI  -5
HINCKLEY       CLOUDY    14   3  62 NW14G23   29.93R WCI  -1
CLOQUET        FLURRIES   9   1  72 NW20G26   29.87R WCI -11
MCGREGOR       MOSUNNY   10   3  72 NW20G26   29.93S WCI  -8
$$
MNZ071>073-080-081-089-090-097-098-081800-
   Southwest Minnesota

CITY           SKY/WX    TMP DP  RH WIND       PRES   REMARKS
MONTEVIDEO     CLOUDY    14  12  92 N36G43    30.09F FOG     WCI  -8
GRANITE FALLS  CLOUDY    16   9  73 NW24G36   30.09S HAZE    WCI  -3
CANBY          LGT SNOW  19  13  76 NW24G35   30.13R WCI   2
MARSHALL       SNOW      13  10  88 N36G44    30.06F VSB 1/4 WCI -10
REDWOOD FALLS  FLURRIES  14   5  67 NW21G35   30.05R WCI  -4
OLIVIA         CLOUDY    16   9  73 NW24G33   30.04R WCI  -3
PIPESTONE      SUNNY     18   9  68 N21G29    30.06R WCI   1
WINDOM         SNOW      12   9  85 NW32G39   30.01R VSB 1/4 WCI -10
WORTHINGTON    CLOUDY   N/A N/A N/A NW35G47   30.05R VSB 3/4
JACKSON        CLOUDY    14   9  79 NW38G49   29.99S WCI  -9
TRACY          MOSUNNY   15   9  80 N32G43    30.06S HAZE    WCI  -7
SLAYTON          N/A     13  11  92 NW29G35   30.04S WCI  -8
$$
MNZ065>067-074>077-082>085-091>093-081800-
   South Central Minnesota

CITY           SKY/WX    TMP DP  RH WIND       PRES   REMARKS
MANKATO        CLOUDY   N/A N/A N/A NW21G31   29.97R
NEW ULM        PTSUNNY   12   7  79 NW30G38   29.98R HAZE    WCI  -9
ST JAMES       LGT SNOW  16  10  79 NW26G36   30.02R VSB 3/4 WCI  -3
FAIRMONT       CLOUDY    14   3  62 NW29G37   29.97R VSB 1/2 WCI  -7
GLENCOE        CLOUDY    13   8  81 NW16G28   29.99R HAZE    WCI  -4
FARIBAULT      CLOUDY    12   5  73 NW16G24   29.94R WCI  -4
OWATONNA       CLOUDY    12   5  73 NW20      29.92R WCI  -6
WASECA         CLOUDY    12   7  79 NW25G33   29.96R HAZE    WCI  -8
ALBERT LEA     CLOUDY    12   7  79 NW16G29   29.91R HAZE    WCI  -4
$$
MNZ078>079-086>088-094>096-081800-
   Southeast Minnesota

CITY           SKY/WX    TMP DP  RH WIND       PRES   REMARKS
ROCHESTER      MIX PCPN  11   5  77 NW25      29.85R WCI -10
RED WING       LGT SNOW  16   3  57 NW13G18   29.91R WCI   2
STANTON        CLOUDY    14   6  69 NW16      29.92S WCI  -2
DODGE CENTER   CLOUDY    12   7  79 NW20      29.86S HAZE    WCI  -6
WINONA         CLOUDY    19  10  68 NW21G28   29.87R WCI   3
AUSTIN         CLOUDY    10   7  85 NW21G31   29.88R HAZE    WCI  -9
PRESTON        CLOUDY    13   6  73 NW18G28   29.83R WCI  -4
$$
ABBREVIATIONS USED IN REMARKS
   TC - TEMPERATURES IN CELSIUS
  WCI - WIND CHILL INDEX
   HX - HEAT INDEX
  VSB - VISIBILITY
$$




USA.gov is the U.S. government's official web portal to all federal, state and local government web resources and services.